Station Historical Data
Daily Summary for September 16, 2017 Units:  Metric    English   Both
« Previous Day
Next Day »
Daily Weekly Monthly Yearly Custom
  High: Low: Average:
Temperature: 30.8 °C 17.9 °C 22.8 °C
Dew Point: 20.4 °C 16.7 °C 18.3 °C
Humidity: 93% 47% 78%
Wind Speed: 11.3km/h 1.6km/h 5km/h
Wind Gust: 11.3km/h - -
Wind- - ENE
Pressure: 1021.6 hPa 1018.2 hPa -
Precipitation: 0 mm    
Historical Graphs
 
 
Tabular Data for September 16, 2017
Time Temperature Dew Point Pressure Wind Wind Speed Wind Gust Humidity Rainfall Rate (Hourly) solar Conditions
00:00 19.9 °C 18 °C 1019.5 hPa North 4.8 km/h 4.8 km/h 89% 0 mm WeatherDisplay:10.37 W/m2 BKN
00:05 19.8 °C 18.2 °C 1019.5 hPa North 4.8 km/h 4.8 km/h 90% 0 mm WeatherDisplay:10.37 W/m2 BKN
00:10 19.8 °C 18.1 °C 1019.2 hPa North 4.8 km/h 4.8 km/h 90% 0 mm WeatherDisplay:10.37 W/m2 BKN
00:15 19.8 °C 18.1 °C 1019.5 hPa North 4.8 km/h 4.8 km/h 90% 0 mm WeatherDisplay:10.37 W/m2 CLR
00:20 19.8 °C 18.1 °C 1019.5 hPa North 4.8 km/h 4.8 km/h 90% 0 mm WeatherDisplay:10.37 W/m2 CLR
00:25 19.8 °C 18.1 °C 1019.5 hPa North 4.8 km/h 4.8 km/h 90% 0 mm WeatherDisplay:10.37 W/m2 CLR
00:30 19.7 °C 18.1 °C 1019.5 hPa North 4.8 km/h 4.8 km/h 90% 0 mm WeatherDisplay:10.37 W/m2 CLR
00:40 19.7 °C 18.2 °C 1019.5 hPa North 4.8 km/h 4.8 km/h 91% 0 mm WeatherDisplay:10.37 W/m2 CLR
00:45 19.8 °C 18.3 °C 1019.5 hPa North 4.8 km/h 4.8 km/h 91% 0 mm WeatherDisplay:10.37 W/m2 CLR
00:50 19.7 °C 18.2 °C 1019.5 hPa North 4.8 km/h 4.8 km/h 91% 0 mm WeatherDisplay:10.37 W/m2 CLR
00:55 19.8 °C 18.3 °C 1019.2 hPa North 4.8 km/h 4.8 km/h 91% 0 mm WeatherDisplay:10.37 W/m2 CLR
01:00 19.8 °C 18.3 °C 1019.5 hPa North 4.8 km/h 4.8 km/h 91% 0 mm WeatherDisplay:10.37 W/m2 CLR
01:05 19.7 °C 18.1 °C 1019.2 hPa North 4.8 km/h 4.8 km/h 90% 0 mm WeatherDisplay:10.37 W/m2 CLR
01:10 19.7 °C 18 °C 1019.5 hPa North 4.8 km/h 4.8 km/h 90% 0 mm WeatherDisplay:10.37 W/m2 CLR
01:15 19.6 °C 18.1 °C 1019.5 hPa North 4.8 km/h 4.8 km/h 91% 0 mm WeatherDisplay:10.37 W/m2 CLR
01:20 19.6 °C 18.1 °C 1019.2 hPa North 4.8 km/h 4.8 km/h 91% 0 mm WeatherDisplay:10.37 W/m2 CLR
01:25 19.6 °C 18.1 °C 1019.2 hPa North 4.8 km/h 4.8 km/h 91% 0 mm WeatherDisplay:10.37 W/m2 CLR
01:30 19.6 °C 18.1 °C 1019.2 hPa North 4.8 km/h 4.8 km/h 91% 0 mm WeatherDisplay:10.37 W/m2 CLR
01:35 19.5 °C 18 °C 1019.2 hPa North 4.8 km/h 4.8 km/h 91% 0 mm WeatherDisplay:10.37 W/m2 CLR
01:40 19.5 °C 18 °C 1019.2 hPa North 4.8 km/h 4.8 km/h 91% 0 mm WeatherDisplay:10.37 W/m2 CLR
01:45 19.4 °C 17.9 °C 1019.2 hPa North 4.8 km/h 4.8 km/h 91% 0 mm WeatherDisplay:10.37 W/m2 CLR
01:50 19.3 °C 17.8 °C 1019.2 hPa North 4.8 km/h 4.8 km/h 91% 0 mm WeatherDisplay:10.37 W/m2 CLR
01:55 19.3 °C 17.8 °C 1019.2 hPa North 4.8 km/h 4.8 km/h 91% 0 mm WeatherDisplay:10.37 W/m2 CLR
02:00 19.2 °C 17.7 °C 1019.2 hPa North 4.8 km/h 4.8 km/h 91% 0 mm WeatherDisplay:10.37 W/m2 CLR
02:05 19.2 °C 17.7 °C 1019.2 hPa North 4.8 km/h 4.8 km/h 91% 0 mm WeatherDisplay:10.37 W/m2 CLR
02:10 19.2 °C 17.7 °C 1019.2 hPa North 4.8 km/h 4.8 km/h 91% 0 mm WeatherDisplay:10.37 W/m2 CLR
02:15 19.1 °C 17.6 °C 1019.2 hPa North 4.8 km/h 4.8 km/h 91% 0 mm WeatherDisplay:10.37 W/m2 CLR
02:20 19.1 °C 17.6 °C 1019.2 hPa North 4.8 km/h 4.8 km/h 91% 0 mm WeatherDisplay:10.37 W/m2 CLR
02:25 19 °C 17.5 °C 1019.2 hPa North 4.8 km/h 4.8 km/h 91% 0 mm WeatherDisplay:10.37 W/m2 CLR
02:30 19 °C 17.5 °C 1019.2 hPa North 4.8 km/h 4.8 km/h 91% 0 mm WeatherDisplay:10.37 W/m2 CLR
02:35 18.9 °C 17.4 °C 1019.2 hPa North 4.8 km/h 4.8 km/h 91% 0 mm WeatherDisplay:10.37 W/m2 CLR
02:40 18.9 °C 17.4 °C 1019.2 hPa North 4.8 km/h 4.8 km/h 91% 0 mm WeatherDisplay:10.37 W/m2 CLR
02:45 18.9 °C 17.6 °C 1019.2 hPa North 4.8 km/h 4.8 km/h 92% 0 mm WeatherDisplay:10.37 W/m2 CLR
02:55 19 °C 17.7 °C 1019.2 hPa North 4.8 km/h 4.8 km/h 92% 0 mm WeatherDisplay:10.37 W/m2 CLR
03:00 18.9 °C 17.6 °C 1019.2 hPa North 4.8 km/h 4.8 km/h 92% 0 mm WeatherDisplay:10.37 W/m2 CLR
03:05 18.9 °C 17.6 °C 1019.2 hPa North 4.8 km/h 4.8 km/h 92% 0 mm WeatherDisplay:10.37 W/m2 CLR
03:10 18.9 °C 17.6 °C 1019.2 hPa North 4.8 km/h 4.8 km/h 92% 0 mm WeatherDisplay:10.37 W/m2 CLR
03:20 18.9 °C 17.6 °C 1018.8 hPa North 4.8 km/h 4.8 km/h 92% 0 mm WeatherDisplay:10.37 W/m2 CLR
03:25 18.9 °C 17.6 °C 1018.8 hPa North 4.8 km/h 4.8 km/h 92% 0 mm WeatherDisplay:10.37 W/m2 CLR
03:30 18.9 °C 17.6 °C 1018.8 hPa North 4.8 km/h 4.8 km/h 92% 0 mm WeatherDisplay:10.37 W/m2 CLR
03:35 18.9 °C 17.6 °C 1018.8 hPa North 4.8 km/h 4.8 km/h 92% 0 mm WeatherDisplay:10.37 W/m2 CLR
03:40 18.8 °C 17.5 °C 1018.8 hPa North 4.8 km/h 4.8 km/h 92% 0 mm WeatherDisplay:10.37 W/m2 CLR
03:45 18.8 °C 17.4 °C 1018.8 hPa North 4.8 km/h 4.8 km/h 92% 0 mm WeatherDisplay:10.37 W/m2 CLR
03:50 18.8 °C 17.4 °C 1018.8 hPa North 4.8 km/h 4.8 km/h 92% 0 mm WeatherDisplay:10.37 W/m2 CLR
03:55 18.8 °C 17.4 °C 1018.8 hPa North 4.8 km/h 4.8 km/h 92% 0 mm WeatherDisplay:10.37 W/m2 CLR
04:00 18.8 °C 17.4 °C 1018.8 hPa North 4.8 km/h 4.8 km/h 92% 0 mm WeatherDisplay:10.37 W/m2 CLR
04:10 18.7 °C 17.4 °C 1018.8 hPa North 4.8 km/h 4.8 km/h 92% 0 mm WeatherDisplay:10.37 W/m2 CLR
04:15 18.8 °C 17.6 °C 1018.8 hPa North 4.8 km/h 4.8 km/h 93% 0 mm WeatherDisplay:10.37 W/m2 CLR
04:20 18.8 °C 17.6 °C 1018.8 hPa North 4.8 km/h 4.8 km/h 93% 0 mm WeatherDisplay:10.37 W/m2 CLR
04:25 18.7 °C 17.4 °C 1019.2 hPa North 4.8 km/h 4.8 km/h 92% 0 mm WeatherDisplay:10.37 W/m2 CLR
04:30 18.7 °C 17.6 °C 1019.2 hPa North 4.8 km/h 4.8 km/h 93% 0 mm WeatherDisplay:10.37 W/m2 CLR
04:35 18.7 °C 17.6 °C 1019.2 hPa North 4.8 km/h 4.8 km/h 93% 0 mm WeatherDisplay:10.37 W/m2 CLR
04:40 18.7 °C 17.5 °C 1019.2 hPa North 4.8 km/h 4.8 km/h 93% 0 mm WeatherDisplay:10.37 W/m2 CLR
04:45 18.7 °C 17.5 °C 1019.2 hPa North 4.8 km/h 4.8 km/h 93% 0 mm WeatherDisplay:10.37 W/m2 CLR
04:50 18.7 °C 17.5 °C 1019.2 hPa North 4.8 km/h 4.8 km/h 93% 0 mm WeatherDisplay:10.37 W/m2 CLR
04:55 18.6 °C 17.4 °C 1019.2 hPa North 4.8 km/h 4.8 km/h 93% 0 mm WeatherDisplay:10.37 W/m2 CLR
05:00 18.6 °C 17.2 °C 1019.2 hPa North 4.8 km/h 4.8 km/h 92% 0 mm WeatherDisplay:10.37 W/m2 CLR
05:05 18.5 °C 17.2 °C 1019.2 hPa North 4.8 km/h 4.8 km/h 92% 0 mm WeatherDisplay:10.37 W/m2 CLR
05:10 18.5 °C 17.3 °C 1019.2 hPa North 4.8 km/h 4.8 km/h 93% 0 mm WeatherDisplay:10.37 W/m2 CLR
05:15 18.5 °C 17.3 °C 1019.2 hPa North 4.8 km/h 4.8 km/h 93% 0 mm WeatherDisplay:10.37 W/m2 CLR
05:20 18.4 °C 17.3 °C 1019.2 hPa North 4.8 km/h 4.8 km/h 93% 0 mm WeatherDisplay:10.37 W/m2 CLR
05:25 18.4 °C 17.3 °C 1019.2 hPa North 4.8 km/h 4.8 km/h 93% 0 mm WeatherDisplay:10.37 W/m2 CLR
05:30 18.4 °C 17.2 °C 1019.2 hPa North 4.8 km/h 4.8 km/h 93% 0 mm WeatherDisplay:10.37 W/m2 CLR
05:40 18.4 °C 17.3 °C 1019.2 hPa North 4.8 km/h 4.8 km/h 93% 0 mm WeatherDisplay:10.37 W/m2 CLR
05:45 18.4 °C 17.3 °C 1019.5 hPa North 4.8 km/h 4.8 km/h 93% 0 mm WeatherDisplay:10.37 W/m2 CLR
06:00 18.3 °C 17.1 °C 1019.5 hPa North 4.8 km/h 4.8 km/h 93% 0 mm WeatherDisplay:10.37 W/m2 CLR
06:10 18.1 °C 16.8 °C 1019.5 hPa North 4.8 km/h 4.8 km/h 92% 0 mm WeatherDisplay:10.37 W/m2 CLR
06:15 18.1 °C 16.9 °C 1019.9 hPa North 4.8 km/h 4.8 km/h 93% 0 mm WeatherDisplay:10.37 W/m2 CLR
06:20 18.1 °C 16.9 °C 1019.9 hPa North 4.8 km/h 4.8 km/h 93% 0 mm WeatherDisplay:10.37 W/m2 CLR
06:25 18.1 °C 16.9 °C 1019.9 hPa North 4.8 km/h 4.8 km/h 93% 0 mm WeatherDisplay:10.37 W/m2 CLR
06:30 18.1 °C 16.9 °C 1019.9 hPa North 4.8 km/h 4.8 km/h 93% 0 mm WeatherDisplay:10.37 W/m2 CLR
06:40 18.1 °C 16.9 °C 1020.2 hPa North 4.8 km/h 4.8 km/h 93% 0 mm WeatherDisplay:10.37 W/m2 CLR
06:45 18.1 °C 16.9 °C 1020.2 hPa North 4.8 km/h 4.8 km/h 93% 0 mm WeatherDisplay:10.37 W/m2 CLR
06:50 18 °C 16.8 °C 1020.2 hPa North 4.8 km/h 4.8 km/h 93% 0 mm WeatherDisplay:10.37 W/m2 CLR
06:55 18 °C 16.8 °C 1020.2 hPa North 4.8 km/h 4.8 km/h 93% 0 mm WeatherDisplay:10.37 W/m2 CLR
07:00 17.9 °C 16.8 °C 1020.5 hPa North 4.8 km/h 4.8 km/h 93% 0 mm WeatherDisplay:10.37 W/m2 CLR
07:10 17.9 °C 16.8 °C 1020.5 hPa North 4.8 km/h 4.8 km/h 93% 0 mm WeatherDisplay:10.37 W/m2 CLR
07:15 17.9 °C 16.8 °C 1020.5 hPa North 4.8 km/h 4.8 km/h 93% 0 mm WeatherDisplay:10.37 W/m2 FEW
07:20 17.9 °C 16.8 °C 1020.5 hPa North 4.8 km/h 4.8 km/h 93% 0 mm WeatherDisplay:10.37 W/m2 FEW
07:25 17.9 °C 16.7 °C 1020.5 hPa North 4.8 km/h 4.8 km/h 93% 0 mm WeatherDisplay:10.37 W/m2 FEW
07:30 17.9 °C 16.8 °C 1020.9 hPa North 4.8 km/h 4.8 km/h 93% 0 mm WeatherDisplay:10.37 W/m2 FEW
07:35 17.9 °C 16.7 °C 1020.9 hPa North 4.8 km/h 4.8 km/h 93% 0 mm WeatherDisplay:10.37 W/m2 FEW
07:40 17.9 °C 16.7 °C 1020.9 hPa North 4.8 km/h 4.8 km/h 93% 0 mm WeatherDisplay:10.37 W/m2 FEW
07:45 17.9 °C 16.7 °C 1020.9 hPa North 4.8 km/h 4.8 km/h 93% 0 mm WeatherDisplay:10.37 W/m2 FEW
07:50 17.9 °C 16.8 °C 1020.9 hPa North 4.8 km/h 4.8 km/h 93% 0 mm WeatherDisplay:10.37 W/m2 FEW
07:55 18.1 °C 16.9 °C 1020.9 hPa North 4.8 km/h 4.8 km/h 93% 0 mm WeatherDisplay:10.37 W/m2 FEW
08:00 18.1 °C 16.9 °C 1020.9 hPa North 4.8 km/h 4.8 km/h 93% 0 mm WeatherDisplay:10.37 W/m2 FEW
08:05 18.2 °C 17 °C 1020.9 hPa North 4.8 km/h 4.8 km/h 93% 0 mm WeatherDisplay:10.37 W/m2 FEW
08:10 18.2 °C 17 °C 1020.9 hPa North 4.8 km/h 4.8 km/h 93% 0 mm WeatherDisplay:10.37 W/m2 FEW
08:15 18.2 °C 17.1 °C 1020.9 hPa NE 1.6 km/h 4.8 km/h 93% 0 mm WeatherDisplay:10.37 W/m2 FEW
08:20 18.3 °C 17.1 °C 1020.9 hPa ENE 1.6 km/h 1.6 km/h 93% 0 mm WeatherDisplay:10.37 W/m2 FEW
08:25 18.3 °C 17.2 °C 1020.9 hPa ENE 1.6 km/h 1.6 km/h 93% 0 mm WeatherDisplay:10.37 W/m2 FEW
08:30 18.4 °C 17.3 °C 1020.9 hPa ENE 1.6 km/h 1.6 km/h 93% 0 mm WeatherDisplay:10.37 W/m2 FEW
08:35 18.5 °C 17.3 °C 1020.9 hPa ENE 1.6 km/h 1.6 km/h 93% 0 mm WeatherDisplay:10.37 W/m2 FEW
08:40 18.6 °C 17.4 °C 1020.9 hPa ENE 1.6 km/h 1.6 km/h 93% 0 mm WeatherDisplay:10.37 W/m2 FEW
08:45 18.7 °C 17.6 °C 1021.2 hPa ENE 1.6 km/h 1.6 km/h 93% 0 mm WeatherDisplay:10.37 W/m2 FEW
08:50 18.9 °C 17.7 °C 1021.2 hPa ENE 1.6 km/h 1.6 km/h 93% 0 mm WeatherDisplay:10.37 W/m2 FEW
08:55 19.1 °C 17.9 °C 1021.2 hPa ENE 1.6 km/h 1.6 km/h 93% 0 mm WeatherDisplay:10.37 W/m2 FEW
09:00 19.3 °C 17.9 °C 1021.2 hPa ENE 1.6 km/h 1.6 km/h 92% 0 mm WeatherDisplay:10.37 W/m2 FEW
09:05 19.4 °C 17.9 °C 1021.2 hPa ENE 1.6 km/h 1.6 km/h 91% 0 mm WeatherDisplay:10.37 W/m2 FEW
09:10 19.7 °C 18.2 °C 1021.2 hPa ENE 1.6 km/h 1.6 km/h 91% 0 mm WeatherDisplay:10.37 W/m2 FEW
09:15 19.9 °C 18.2 °C 1021.2 hPa ENE 1.6 km/h 1.6 km/h 90% 0 mm WeatherDisplay:10.37 W/m2 FEW
09:20 20.1 °C 18.1 °C 1021.2 hPa ENE 1.6 km/h 1.6 km/h 88% 0 mm WeatherDisplay:10.37 W/m2 FEW
09:25 20.3 °C 18.3 °C 1021.2 hPa ENE 1.6 km/h 1.6 km/h 88% 0 mm WeatherDisplay:10.37 W/m2 FEW
09:30 20.6 °C 18.3 °C 1021.2 hPa ENE 1.6 km/h 1.6 km/h 87% 0 mm WeatherDisplay:10.37 W/m2 FEW
09:40 21.1 °C 18.4 °C 1021.2 hPa ENE 1.6 km/h 1.6 km/h 85% 0 mm WeatherDisplay:10.37 W/m2 FEW
09:45 21.2 °C 18.6 °C 1021.2 hPa ENE 1.6 km/h 1.6 km/h 85% 0 mm WeatherDisplay:10.37 W/m2 FEW
09:50 21.4 °C 18.6 °C 1021.2 hPa ENE 1.6 km/h 1.6 km/h 84% 0 mm WeatherDisplay:10.37 W/m2 FEW
09:55 21.6 °C 19 °C 1021.2 hPa ENE 1.6 km/h 1.6 km/h 85% 0 mm WeatherDisplay:10.37 W/m2 FEW
10:00 21.8 °C 18.9 °C 1021.2 hPa ENE 1.6 km/h 1.6 km/h 84% 0 mm WeatherDisplay:10.37 W/m2 FEW
10:10 22.3 °C 18.6 °C 1021.6 hPa ENE 1.6 km/h 1.6 km/h 80% 0 mm WeatherDisplay:10.37 W/m2 FEW
10:15 22.5 °C 19.1 °C 1021.2 hPa NE 8 km/h 8 km/h 81% 0 mm WeatherDisplay:10.37 W/m2 FEW
10:20 22.7 °C 19.1 °C 1021.6 hPa NE 8 km/h 8 km/h 80% 0 mm WeatherDisplay:10.37 W/m2 FEW
10:25 22.9 °C 19.2 °C 1021.6 hPa NE 8 km/h 8 km/h 80% 0 mm WeatherDisplay:10.37 W/m2 FEW
10:30 23.1 °C 18.8 °C 1021.6 hPa NE 8 km/h 8 km/h 77% 0 mm WeatherDisplay:10.37 W/m2 FEW
10:35 23.2 °C 18.8 °C 1021.6 hPa NE 8 km/h 8 km/h 76% 0 mm WeatherDisplay:10.37 W/m2 FEW
10:40 23.4 °C 18.9 °C 1021.6 hPa NE 8 km/h 8 km/h 76% 0 mm WeatherDisplay:10.37 W/m2 FEW
10:45 23.8 °C 18.9 °C 1021.6 hPa NE 8 km/h 8 km/h 74% 0 mm WeatherDisplay:10.37 W/m2 FEW
10:50 24.1 °C 18.8 °C 1021.6 hPa NE 8 km/h 8 km/h 72% 0 mm WeatherDisplay:10.37 W/m2 FEW
10:55 24.5 °C 19.1 °C 1021.6 hPa NE 8 km/h 8 km/h 72% 0 mm WeatherDisplay:10.37 W/m2 FEW
11:00 24.7 °C 18.6 °C 1021.6 hPa NE 8 km/h 8 km/h 69% 0 mm WeatherDisplay:10.37 W/m2 FEW
11:05 24.9 °C 19 °C 1021.6 hPa NE 8 km/h 8 km/h 70% 0 mm WeatherDisplay:10.37 W/m2 FEW
11:10 25.2 °C 19.4 °C 1021.6 hPa NE 8 km/h 8 km/h 70% 0 mm WeatherDisplay:10.37 W/m2 FEW
11:15 25.8 °C 20.4 °C 1021.6 hPa ENE 4.8 km/h 8 km/h 72% 0 mm WeatherDisplay:10.37 W/m2 FEW
11:20 26.3 °C 19.4 °C 1021.6 hPa East 4.8 km/h 4.8 km/h 66% 0 mm WeatherDisplay:10.37 W/m2 FEW
11:25 26.7 °C 19.6 °C 1021.6 hPa East 4.8 km/h 4.8 km/h 65% 0 mm WeatherDisplay:10.37 W/m2 FEW
11:30 27.1 °C 19.7 °C 1021.6 hPa East 4.8 km/h 4.8 km/h 64% 0 mm WeatherDisplay:10.37 W/m2 FEW
11:40 26.8 °C 19.2 °C 1021.6 hPa East 4.8 km/h 4.8 km/h 63% 0 mm WeatherDisplay:10.37 W/m2 FEW
11:45 27.1 °C 19.7 °C 1021.6 hPa East 4.8 km/h 4.8 km/h 64% 0 mm WeatherDisplay:10.37 W/m2 FEW
11:50 27.6 °C 19.7 °C 1021.6 hPa East 4.8 km/h 4.8 km/h 62% 0 mm WeatherDisplay:10.37 W/m2 FEW
11:55 27.7 °C 19.5 °C 1021.6 hPa East 4.8 km/h 4.8 km/h 61% 0 mm WeatherDisplay:10.37 W/m2 FEW
12:00 27.6 °C 19.2 °C 1021.6 hPa East 4.8 km/h 4.8 km/h 60% 0 mm WeatherDisplay:10.37 W/m2 FEW
12:10 28.4 °C 20.4 °C 1021.2 hPa East 4.8 km/h 4.8 km/h 62% 0 mm WeatherDisplay:10.37 W/m2 FEW
12:15 28.6 °C 20.1 °C 1021.2 hPa East 11.3 km/h 11.3 km/h 60% 0 mm WeatherDisplay:10.37 W/m2 FEW
12:20 28.4 °C 19.7 °C 1021.2 hPa East 11.3 km/h 11.3 km/h 59% 0 mm WeatherDisplay:10.37 W/m2 FEW
12:25 28.4 °C 19.1 °C 1021.2 hPa East 11.3 km/h 11.3 km/h 57% 0 mm WeatherDisplay:10.37 W/m2 FEW
12:30 28.5 °C 18.9 °C 1021.2 hPa East 11.3 km/h 11.3 km/h 56% 0 mm WeatherDisplay:10.37 W/m2 FEW
12:40 29.1 °C 19.4 °C 1021.2 hPa East 11.3 km/h 11.3 km/h 56% 0 mm WeatherDisplay:10.37 W/m2 FEW
12:45 29.2 °C 19.2 °C 1021.2 hPa East 11.3 km/h 11.3 km/h 55% 0 mm WeatherDisplay:10.37 W/m2 FEW
12:50 29.3 °C 19.3 °C 1021.2 hPa East 11.3 km/h 11.3 km/h 55% 0 mm WeatherDisplay:10.37 W/m2 FEW
12:55 29.3 °C 19.7 °C 1020.9 hPa East 11.3 km/h 11.3 km/h 56% 0 mm WeatherDisplay:10.37 W/m2 FEW
13:00 29.3 °C 19.1 °C 1020.9 hPa East 11.3 km/h 11.3 km/h 54% 0 mm WeatherDisplay:10.37 W/m2 FEW
13:05 29.6 °C 18.7 °C 1020.9 hPa East 11.3 km/h 11.3 km/h 52% 0 mm WeatherDisplay:10.37 W/m2 FEW
13:10 29.3 °C 18.7 °C 1020.9 hPa East 11.3 km/h 11.3 km/h 53% 0 mm WeatherDisplay:10.37 W/m2 FEW
13:15 29.1 °C 18.8 °C 1020.9 hPa ESE 8 km/h 11.3 km/h 54% 0 mm WeatherDisplay:10.37 W/m2 SCT
13:20 29.1 °C 18.6 °C 1020.5 hPa SSE 8 km/h 8 km/h 53% 0 mm WeatherDisplay:10.37 W/m2 SCT
13:25 29.2 °C 18.6 °C 1020.5 hPa SSE 8 km/h 8 km/h 53% 0 mm WeatherDisplay:10.37 W/m2 SCT
13:30 29.4 °C 19.4 °C 1020.5 hPa SSE 8 km/h 8 km/h 55% 0 mm WeatherDisplay:10.37 W/m2 SCT
13:40 29.4 °C 17.6 °C 1020.5 hPa SSE 8 km/h 8 km/h 49% 0 mm WeatherDisplay:10.37 W/m2 SCT
13:45 29 °C 18.2 °C 1020.5 hPa SSE 8 km/h 8 km/h 52% 0 mm WeatherDisplay:10.37 W/m2 SCT
13:50 29.4 °C 19.1 °C 1020.5 hPa SSE 8 km/h 8 km/h 54% 0 mm WeatherDisplay:10.37 W/m2 SCT
13:55 29.5 °C 18.6 °C 1020.2 hPa SSE 8 km/h 8 km/h 52% 0 mm WeatherDisplay:10.37 W/m2 SCT
14:00 29.8 °C 18.9 °C 1020.2 hPa SSE 8 km/h 8 km/h 52% 0 mm WeatherDisplay:10.37 W/m2 SCT
14:05 30.4 °C 19.4 °C 1020.2 hPa SSE 8 km/h 8 km/h 52% 0 mm WeatherDisplay:10.37 W/m2 SCT
14:10 30.6 °C 19.6 °C 1020.2 hPa SSE 8 km/h 8 km/h 52% 0 mm WeatherDisplay:10.37 W/m2 SCT
14:15 30.5 °C 18.6 °C 1020.2 hPa SSE 3.2 km/h 8 km/h 49% 0 mm WeatherDisplay:10.37 W/m2 BKN
14:20 30.8 °C 19.2 °C 1019.9 hPa SSE 3.2 km/h 3.2 km/h 50% 0 mm WeatherDisplay:10.37 W/m2 BKN
14:25 30.7 °C 18.1 °C 1019.9 hPa SSE 3.2 km/h 3.2 km/h 47% 0 mm WeatherDisplay:10.37 W/m2 BKN
14:30 30.2 °C 17.7 °C 1019.9 hPa SSE 3.2 km/h 3.2 km/h 47% 0 mm WeatherDisplay:10.37 W/m2 BKN
14:40 30.2 °C 18.7 °C 1019.5 hPa SSE 3.2 km/h 3.2 km/h 50% 0 mm WeatherDisplay:10.37 W/m2 BKN
14:45 30.5 °C 18.9 °C 1019.5 hPa SSE 3.2 km/h 3.2 km/h 50% 0 mm WeatherDisplay:10.37 W/m2 BKN
14:50 30.4 °C 18.8 °C 1019.5 hPa SSE 3.2 km/h 3.2 km/h 50% 0 mm WeatherDisplay:10.37 W/m2 BKN
14:55 30.3 °C 19.1 °C 1019.5 hPa SSE 3.2 km/h 3.2 km/h 51% 0 mm WeatherDisplay:10.37 W/m2 BKN
15:00 29.9 °C 18.7 °C 1019.2 hPa SSE 3.2 km/h 3.2 km/h 51% 0 mm WeatherDisplay:10.37 W/m2 BKN
15:05 29.1 °C 18.2 °C 1019.2 hPa SSE 3.2 km/h 3.2 km/h 52% 0 mm WeatherDisplay:10.37 W/m2 BKN
15:10 28.6 °C 19.5 °C 1019.2 hPa SSE 3.2 km/h 3.2 km/h 58% 0 mm WeatherDisplay:10.37 W/m2 BKN
15:20 27.9 °C 18.3 °C 1019.2 hPa SE 4.8 km/h 4.8 km/h 56% 0 mm WeatherDisplay:10.37 W/m2 BKN
15:25 28.1 °C 18.8 °C 1018.8 hPa SE 4.8 km/h 4.8 km/h 57% 0 mm WeatherDisplay:10.37 W/m2 BKN
15:30 28.2 °C 19.2 °C 1018.8 hPa SE 4.8 km/h 4.8 km/h 58% 0 mm WeatherDisplay:10.37 W/m2 BKN
15:40 28.4 °C 18.2 °C 1018.8 hPa SE 4.8 km/h 4.8 km/h 54% 0 mm WeatherDisplay:10.37 W/m2 BKN
15:45 28.4 °C 18.6 °C 1018.8 hPa SE 4.8 km/h 4.8 km/h 55% 0 mm WeatherDisplay:10.37 W/m2 BKN
15:50 28.4 °C 18.5 °C 1018.8 hPa SE 4.8 km/h 4.8 km/h 55% 0 mm WeatherDisplay:10.37 W/m2 BKN
15:55 28.3 °C 18.1 °C 1018.8 hPa SE 4.8 km/h 4.8 km/h 54% 0 mm WeatherDisplay:10.37 W/m2 BKN
16:00 28.3 °C 18.1 °C 1018.8 hPa SE 4.8 km/h 4.8 km/h 54% 0 mm WeatherDisplay:10.37 W/m2 BKN
16:05 28.3 °C 18.4 °C 1018.8 hPa SE 4.8 km/h 4.8 km/h 55% 0 mm WeatherDisplay:10.37 W/m2 BKN
16:10 28.4 °C 17.9 °C 1018.8 hPa SE 4.8 km/h 4.8 km/h 53% 0 mm WeatherDisplay:10.37 W/m2 BKN
16:15 28.4 °C 17.9 °C 1018.5 hPa SE 4.8 km/h 4.8 km/h 53% 0 mm WeatherDisplay:10.37 W/m2 BKN
16:20 28.4 °C 17.6 °C 1018.5 hPa SSE 4.8 km/h 4.8 km/h 52% 0 mm WeatherDisplay:10.37 W/m2 BKN
16:25 28.6 °C 18.9 °C 1018.8 hPa SSE 4.8 km/h 4.8 km/h 56% 0 mm WeatherDisplay:10.37 W/m2 BKN
16:30 28.4 °C 19.1 °C 1018.8 hPa SSE 4.8 km/h 4.8 km/h 57% 0 mm WeatherDisplay:10.37 W/m2 BKN
16:40 27.7 °C 19.5 °C 1018.5 hPa SSE 4.8 km/h 4.8 km/h 61% 0 mm WeatherDisplay:10.37 W/m2 BKN
16:45 27.3 °C 19.4 °C 1018.5 hPa SSE 4.8 km/h 4.8 km/h 62% 0 mm WeatherDisplay:10.37 W/m2 BKN
16:50 27.1 °C 19.2 °C 1018.5 hPa SSE 4.8 km/h 4.8 km/h 62% 0 mm WeatherDisplay:10.37 W/m2 BKN
16:55 27.1 °C 19.4 °C 1018.5 hPa SSE 4.8 km/h 4.8 km/h 63% 0 mm WeatherDisplay:10.37 W/m2 BKN
17:00 27.2 °C 18.8 °C 1018.5 hPa SSE 4.8 km/h 4.8 km/h 60% 0 mm WeatherDisplay:10.37 W/m2 BKN
17:05 27.4 °C 19.2 °C 1018.5 hPa SSE 4.8 km/h 4.8 km/h 61% 0 mm WeatherDisplay:10.37 W/m2 BKN
17:10 27.4 °C 19 °C 1018.5 hPa SSE 4.8 km/h 4.8 km/h 60% 0 mm WeatherDisplay:10.37 W/m2 BKN
17:15 27.5 °C 18.5 °C 1018.5 hPa SSE 4.8 km/h 4.8 km/h 58% 0 mm WeatherDisplay:10.37 W/m2 SCT
17:20 27.6 °C 18.6 °C 1018.5 hPa SSE 4.8 km/h 4.8 km/h 58% 0 mm WeatherDisplay:10.37 W/m2 SCT
17:25 27.4 °C 18.9 °C 1018.2 hPa SSE 4.8 km/h 4.8 km/h 60% 0 mm WeatherDisplay:10.37 W/m2 SCT
17:30 27.4 °C 19.4 °C 1018.2 hPa SSE 4.8 km/h 4.8 km/h 62% 0 mm WeatherDisplay:10.37 W/m2 SCT
17:35 27.3 °C 19.1 °C 1018.2 hPa SSE 4.8 km/h 4.8 km/h 61% 0 mm WeatherDisplay:10.37 W/m2 SCT
17:40 27.2 °C 19.5 °C 1018.2 hPa SSE 4.8 km/h 4.8 km/h 63% 0 mm WeatherDisplay:10.37 W/m2 SCT
17:45 27 °C 19.4 °C 1018.2 hPa SSE 4.8 km/h 4.8 km/h 63% 0 mm WeatherDisplay:10.37 W/m2 SCT
17:50 26.8 °C 19.2 °C 1018.2 hPa SSE 4.8 km/h 4.8 km/h 63% 0 mm WeatherDisplay:10.37 W/m2 SCT
17:55 26.6 °C 19.2 °C 1018.2 hPa SSE 4.8 km/h 4.8 km/h 64% 0 mm WeatherDisplay:10.37 W/m2 SCT
18:00 26.4 °C 19.1 °C 1018.2 hPa SSE 4.8 km/h 4.8 km/h 64% 0 mm WeatherDisplay:10.37 W/m2 SCT
18:05 26.2 °C 18.9 °C 1018.2 hPa SSE 4.8 km/h 4.8 km/h 64% 0 mm WeatherDisplay:10.37 W/m2 SCT
18:10 26.1 °C 18.8 °C 1018.2 hPa SSE 4.8 km/h 4.8 km/h 64% 0 mm WeatherDisplay:10.37 W/m2 SCT
18:15 26 °C 18.9 °C 1018.2 hPa ENE 4.8 km/h 4.8 km/h 65% 0 mm WeatherDisplay:10.37 W/m2 SCT
18:20 25.9 °C 18.8 °C 1018.2 hPa NNE 4.8 km/h 4.8 km/h 65% 0 mm WeatherDisplay:10.37 W/m2 SCT
18:25 25.8 °C 18.8 °C 1018.2 hPa NNE 4.8 km/h 4.8 km/h 65% 0 mm WeatherDisplay:10.37 W/m2 SCT
18:30 25.8 °C 18.9 °C 1018.2 hPa NNE 4.8 km/h 4.8 km/h 66% 0 mm WeatherDisplay:10.37 W/m2 SCT
18:40 25.6 °C 18.8 °C 1018.2 hPa NNE 4.8 km/h 4.8 km/h 66% 0 mm WeatherDisplay:10.37 W/m2 SCT
18:45 25.4 °C 18.7 °C 1018.2 hPa NNE 4.8 km/h 4.8 km/h 66% 0 mm WeatherDisplay:10.37 W/m2 SCT
18:50 25.3 °C 18.5 °C 1018.2 hPa NNE 4.8 km/h 4.8 km/h 66% 0 mm WeatherDisplay:10.37 W/m2 SCT
18:55 25.2 °C 18.7 °C 1018.2 hPa NNE 4.8 km/h 4.8 km/h 67% 0 mm WeatherDisplay:10.37 W/m2 SCT
19:00 25.1 °C 18.8 °C 1018.2 hPa NNE 4.8 km/h 4.8 km/h 68% 0 mm WeatherDisplay:10.37 W/m2 SCT
19:05 25 °C 18.7 °C 1018.2 hPa NNE 4.8 km/h 4.8 km/h 68% 0 mm WeatherDisplay:10.37 W/m2 SCT
19:10 24.9 °C 18.8 °C 1018.5 hPa NNE 4.8 km/h 4.8 km/h 69% 0 mm WeatherDisplay:10.37 W/m2 SCT
19:15 24.8 °C 18.7 °C 1018.2 hPa NNE 4.8 km/h 4.8 km/h 69% 0 mm WeatherDisplay:10.37 W/m2 SCT
19:20 24.7 °C 18.9 °C 1018.2 hPa NNE 4.8 km/h 4.8 km/h 70% 0 mm WeatherDisplay:10.37 W/m2 SCT
19:25 24.6 °C 18.8 °C 1018.2 hPa NNE 4.8 km/h 4.8 km/h 70% 0 mm WeatherDisplay:10.37 W/m2 SCT
19:30 24.5 °C 18.9 °C 1018.2 hPa NNE 4.8 km/h 4.8 km/h 71% 0 mm WeatherDisplay:10.37 W/m2 SCT
19:40 24.2 °C 18.8 °C 1018.2 hPa NNE 4.8 km/h 4.8 km/h 72% 0 mm WeatherDisplay:10.37 W/m2 SCT
19:45 24.1 °C 18.7 °C 1018.2 hPa NNE 4.8 km/h 4.8 km/h 72% 0 mm WeatherDisplay:10.37 W/m2 SCT
19:50 23.9 °C 18.8 °C 1018.5 hPa NNE 4.8 km/h 4.8 km/h 73% 0 mm WeatherDisplay:10.37 W/m2 SCT
19:55 23.8 °C 18.7 °C 1018.5 hPa NNE 4.8 km/h 4.8 km/h 73% 0 mm WeatherDisplay:10.37 W/m2 SCT
20:00 23.7 °C 18.5 °C 1018.5 hPa NNE 4.8 km/h 4.8 km/h 73% 0 mm WeatherDisplay:10.37 W/m2 SCT
20:10 23.4 °C 18.7 °C 1018.5 hPa NNE 4.8 km/h 4.8 km/h 75% 0 mm WeatherDisplay:10.37 W/m2 SCT
20:15 23.2 °C 18.8 °C 1018.5 hPa NNE 4.8 km/h 4.8 km/h 76% 0 mm WeatherDisplay:10.37 W/m2 SCT
20:20 23.1 °C 18.6 °C 1018.5 hPa NNE 4.8 km/h 4.8 km/h 76% 0 mm WeatherDisplay:10.37 W/m2 SCT
20:25 23 °C 18.7 °C 1018.5 hPa NNE 4.8 km/h 4.8 km/h 77% 0 mm WeatherDisplay:10.37 W/m2 SCT
20:30 22.8 °C 18.6 °C 1018.5 hPa NNE 4.8 km/h 4.8 km/h 77% 0 mm WeatherDisplay:10.37 W/m2 SCT
20:40 22.7 °C 18.8 °C 1018.8 hPa NNE 4.8 km/h 4.8 km/h 79% 0 mm WeatherDisplay:10.37 W/m2 SCT
20:45 22.6 °C 18.7 °C 1018.8 hPa NNE 4.8 km/h 4.8 km/h 79% 0 mm WeatherDisplay:10.37 W/m2 SCT
20:50 22.4 °C 18.6 °C 1018.8 hPa NNE 4.8 km/h 4.8 km/h 79% 0 mm WeatherDisplay:10.37 W/m2 SCT
20:55 22.4 °C 18.6 °C 1018.8 hPa NNE 4.8 km/h 4.8 km/h 79% 0 mm WeatherDisplay:10.37 W/m2 SCT
21:00 22.3 °C 18.7 °C 1018.8 hPa NNE 4.8 km/h 4.8 km/h 80% 0 mm WeatherDisplay:10.37 W/m2 SCT
21:10 22 °C 18.8 °C 1018.8 hPa NNE 4.8 km/h 4.8 km/h 82% 0 mm WeatherDisplay:10.37 W/m2 SCT
21:15 21.9 °C 18.7 °C 1018.8 hPa NNE 4.8 km/h 4.8 km/h 82% 0 mm WeatherDisplay:10.37 W/m2 SCT
21:20 21.9 °C 18.9 °C 1018.8 hPa NNE 4.8 km/h 4.8 km/h 83% 0 mm WeatherDisplay:10.37 W/m2 SCT
21:30 22 °C 19 °C 1018.8 hPa NNE 4.8 km/h 4.8 km/h 83% 0 mm WeatherDisplay:10.37 W/m2 SCT
21:35 22 °C 19.2 °C 1018.8 hPa NNE 4.8 km/h 4.8 km/h 84% 0 mm WeatherDisplay:10.37 W/m2 SCT
21:40 22.1 °C 19.2 °C 1018.8 hPa NNE 4.8 km/h 4.8 km/h 84% 0 mm WeatherDisplay:10.37 W/m2 SCT
21:45 22 °C 19.2 °C 1019.2 hPa NNE 4.8 km/h 4.8 km/h 84% 0 mm WeatherDisplay:10.37 W/m2 SCT
21:50 21.9 °C 19.1 °C 1019.2 hPa NNE 4.8 km/h 4.8 km/h 84% 0 mm WeatherDisplay:10.37 W/m2 SCT
21:55 21.8 °C 19 °C 1019.2 hPa NNE 4.8 km/h 4.8 km/h 84% 0 mm WeatherDisplay:10.37 W/m2 SCT
22:00 21.8 °C 19.2 °C 1019.2 hPa NNE 4.8 km/h 4.8 km/h 85% 0 mm WeatherDisplay:10.37 W/m2 SCT
22:05 21.7 °C 19.1 °C 1019.5 hPa NNE 4.8 km/h 4.8 km/h 85% 0 mm WeatherDisplay:10.37 W/m2 SCT
22:10 21.7 °C 19 °C 1019.5 hPa NNE 4.8 km/h 4.8 km/h 85% 0 mm WeatherDisplay:10.37 W/m2 SCT
22:15 21.6 °C 19.1 °C 1019.5 hPa NW 4.8 km/h 4.8 km/h 86% 0 mm WeatherDisplay:10.37 W/m2 FEW
22:20 21.5 °C 19.1 °C 1019.5 hPa West 4.8 km/h 4.8 km/h 86% 0 mm WeatherDisplay:10.37 W/m2 FEW
22:25 21.4 °C 18.9 °C 1019.2 hPa West 4.8 km/h 4.8 km/h 86% 0 mm WeatherDisplay:10.37 W/m2 FEW
22:30 21.3 °C 19.1 °C 1019.2 hPa West 4.8 km/h 4.8 km/h 87% 0 mm WeatherDisplay:10.37 W/m2 FEW
22:35 21.2 °C 19 °C 1019.2 hPa West 4.8 km/h 4.8 km/h 87% 0 mm WeatherDisplay:10.37 W/m2 FEW
22:40 21.2 °C 18.9 °C 1019.2 hPa West 4.8 km/h 4.8 km/h 87% 0 mm WeatherDisplay:10.37 W/m2 FEW
22:45 21.2 °C 18.9 °C 1019.2 hPa West 4.8 km/h 4.8 km/h 87% 0 mm WeatherDisplay:10.37 W/m2 FEW
22:50 21.1 °C 18.8 °C 1019.2 hPa West 4.8 km/h 4.8 km/h 87% 0 mm WeatherDisplay:10.37 W/m2 FEW
22:55 21 °C 18.8 °C 1019.2 hPa West 4.8 km/h 4.8 km/h 87% 0 mm WeatherDisplay:10.37 W/m2 FEW
23:00 20.9 °C 18.9 °C 1019.2 hPa West 4.8 km/h 4.8 km/h 88% 0 mm WeatherDisplay:10.37 W/m2 FEW
23:05 20.9 °C 18.8 °C 1019.2 hPa West 4.8 km/h 4.8 km/h 88% 0 mm WeatherDisplay:10.37 W/m2 FEW
23:10 20.8 °C 18.8 °C 1019.2 hPa West 4.8 km/h 4.8 km/h 88% 0 mm WeatherDisplay:10.37 W/m2 FEW
23:20 20.8 °C 18.7 °C 1019.2 hPa West 4.8 km/h 4.8 km/h 88% 0 mm WeatherDisplay:10.37 W/m2 CLR
23:25 20.7 °C 18.7 °C 1019.2 hPa West 4.8 km/h 4.8 km/h 88% 0 mm WeatherDisplay:10.37 W/m2 CLR
23:30 20.7 °C 18.6 °C 1019.2 hPa West 4.8 km/h 4.8 km/h 88% 0 mm WeatherDisplay:10.37 W/m2 CLR
23:40 20.6 °C 18.6 °C 1019.2 hPa West 4.8 km/h 4.8 km/h 88% 0 mm WeatherDisplay:10.37 W/m2 CLR
23:45 20.6 °C 18.5 °C 1019.5 hPa West 4.8 km/h 4.8 km/h 88% 0 mm WeatherDisplay:10.37 W/m2 CLR
23:50 20.6 °C 18.7 °C 1019.5 hPa West 4.8 km/h 4.8 km/h 89% 0 mm WeatherDisplay:10.37 W/m2 CLR
23:55 20.6 °C 18.7 °C 1019.2 hPa West 4.8 km/h 4.8 km/h 89% 0 mm WeatherDisplay:10.37 W/m2 CLR
Piedmont Bend
Compliments of Weather Underground - 4 mb